Zurück zum Katalog

STARLINK-32608

AktivKommunikationVLEO
NORAD 62124·PAYLOAD·🇺🇸 United States

Gestartet Nov 27, 2024 von Cape Canaveral Space Force Station

Loading…

Nächste Überflüge (nächste 24 Stunden)

TLE

AktuellSource: CelesTrak SupGP

Epoche: Sep 14, 2026, 20:45 UTC

1 62124C 24222L   26257.86506944 -.00022717  00000+0 -82290-3 0  2572
2 62124  43.0011 147.7008 0001321 262.4000  51.0885 15.27586096    11

Verfolge STARLINK-32608 in Echtzeit mit AllMySat

Download on the App Store